Wind_Speed
7 7 6 5 6 8 7 5 1 1 2 5 3 5 5 9 13 11 8 6 3 2 0 5 7 7 8 8 9 7 9 4 1 2 3 7 19 19 15 16 16 16 19 20 17 18 21 22 23 26 29 28 27 28 27 26 26 26 25 24 25 26 26 26 25 25 24 24 23 23 22 21 21 20 20 19 18 18 17 15 14 13 13 12 12 11 11 10 10 10 9 9 8 8 8 8 9
7 6 6 5 6 6 2 2 3 2 4 5 3 5 5 9 12 12 11 8 7 6 6 10 10 11 12 10 7 6 10 8 3 5 6 18 24 17 18 18 18 19 20 21 20 21 21 21 22 24 27 27 27 28 28 28 27 26 25 24 23 23 24 24 23 22 22 22 22 21 20 19 19 18 18 18 17 16 15 14 13 12 12 11 11 11 10 10 9 9 8 8 7 7 7 7 8
7 7 7 5 4 3 1 2 3 3 4 4 4 4 7 11 12 13 14 13 11 10 10 10 9 7 9 10 7 6 5 6 7 8 8 20 19 15 20 18 21 21 21 22 21 22 21 21 22 24 25 26 26 26 28 28 27 26 25 24 23 23 22 22 21 21 20 20 20 19 18 18 17 17 17 16 15 15 14 13 12 12 11 11 11 10 10 9 9 8 7 7 7 6 6 7 7
7 7 8 6 2 1 1 3 2 4 4 3 4 5 9 13 15 15 15 14 12 10 9 8 7 4 10 14 5 5 5 3 6 7 7 14 17 21 22 19 22 22 22 22 22 23 22 22 22 23 24 25 26 25 26 27 26 25 24 23 23 22 21 21 20 20 19 19 19 18 17 17 16 16 16 15 14 13 13 13 12 11 11 11 10 10 9 8 8 7 7 6 6 5 5 6 6
8 7 10 8 0 1 2 2 2 4 4 3 3 5 10 13 15 15 13 13 11 10 9 7 6 5 11 10 3 3 4 4 5 7 10 15 22 25 22 22 23 23 23 22 24 24 22 23 22 23 23 24 25 24 25 25 25 23 23 22 21 21 20 20 19 19 19 18 18 17 16 16 16 15 15 14 13 13 12 12 11 11 11 11 10 9 8 7 7 6 6 5 5 4 4 4 5
8 7 8 7 2 1 2 3 4 4 4 5 5 7 12 13 14 15 14 13 12 11 10 8 9 9 8 5 5 4 5 6 6 8 15 21 25 25 24 24 23 23 23 23 24 24 23 22 22 22 22 23 23 23 23 23 23 22 22 21 21 20 19 19 18 18 18 17 17 16 15 15 14 14 13 13 12 12 12 12 11 11 11 10 9 8 7 6 6 5 5 5 4 3 3 3 4
6 4 5 3 2 0 4 4 4 3 4 8 9 11 13 14 15 16 15 14 13 11 11 9 10 11 7 4 5 6 8 8 9 12 20 26 25 25 25 24 23 23 23 24 24 24 24 21 21 22 22 22 22 22 22 21 21 21 21 20 20 19 19 19 18 18 17 17 16 16 15 14 14 13 13 12 12 12 12 12 11 11 11 9 8 7 6 5 5 4 4 3 3 2 2 2 3
6 2 2 3 2 2 5 4 4 3 3 7 11 13 14 14 14 13 13 11 9 8 10 8 9 12 7 4 5 7 12 11 13 19 25 26 25 25 24 23 24 24 24 25 25 24 23 22 21 21 22 22 21 21 21 21 20 20 20 20 19 18 18 18 18 17 17 17 16 15 15 14 14 14 13 13 12 12 12 11 11 10 10 9 7 6 5 4 3 3 2 2 2 2 2 2 1
6 3 1 4 2 3 4 3 4 4 4 7 10 12 13 13 13 14 13 11 9 8 10 7 7 12 6 7 7 6 12 16 20 23 24 24 24 24 22 23 24 25 25 25 24 23 23 22 21 20 22 21 20 20 20 20 19 19 19 19 18 18 18 17 17 17 17 16 15 15 14 14 14 14 13 13 13 12 12 12 11 10 9 7 6 5 3 3 2 2 2 2 2 2 2 3 2
4 2 2 3 3 4 4 3 4 4 5 8 11 13 14 14 14 15 14 12 12 10 10 6 7 14 9 7 6 5 13 21 24 22 23 24 23 21 21 22 24 27 26 25 24 23 22 21 21 21 21 21 20 20 19 19 18 18 18 18 18 17 17 17 17 16 16 16 15 15 14 14 14 14 13 13 13 12 12 11 10 9 7 6 5 3 2 2 1 1 1 2 2 2 3 3 2
1 1 2 4 4 3 3 3 5 6 9 11 13 15 14 16 16 14 15 13 13 14 12 9 11 14 11 6 4 8 19 23 23 23 24 24 22 21 20 21 23 26 28 27 25 23 22 21 21 21 21 21 20 19 19 18 18 18 17 17 17 17 17 16 16 16 16 15 15 14 14 14 13 13 12 12 12 11 11 10 9 7 5 4 3 2 1 1 1 0 1 2 3 3 4 4 3
1 2 4 4 2 2 3 4 6 8 9 11 11 12 14 16 17 15 17 15 14 15 10 6 9 10 9 6 3 11 20 20 22 23 23 23 23 22 20 22 24 26 29 28 26 24 22 22 22 21 20 21 20 19 18 17 17 17 17 17 16 16 16 15 15 15 15 14 14 14 13 13 12 12 12 11 11 10 10 8 7 6 4 3 2 2 1 1 1 2 2 3 3 4 4 5 5
2 2 4 3 2 1 0 2 4 5 5 7 9 10 14 16 17 17 17 17 14 12 8 9 11 7 8 6 5 10 14 17 21 22 23 23 23 22 21 23 25 27 29 28 27 25 23 23 22 20 21 20 19 18 17 17 17 17 16 16 15 15 14 14 14 14 14 13 13 13 13 12 12 11 11 10 10 9 9 8 7 5 4 3 3 3 3 2 2 3 3 4 4 5 5 5 6
3 2 4 2 1 1 1 2 3 5 5 6 9 8 10 12 16 16 15 15 11 11 13 15 14 8 8 8 7 6 11 19 23 22 23 24 23 22 22 24 25 26 27 27 27 25 24 23 22 21 21 20 18 18 17 17 17 16 16 15 15 14 14 13 13 13 13 13 13 12 12 12 12 11 10 10 9 9 8 7 6 5 5 4 4 4 4 4 4 4 4 5 5 5 5 5 6
4 1 4 3 1 2 1 3 4 6 4 5 10 11 10 11 16 15 14 14 10 12 15 14 12 8 8 9 8 9 16 24 23 23 24 24 23 21 22 24 24 24 24 25 25 25 25 23 23 22 21 20 18 18 17 17 16 16 16 15 14 14 14 13 13 13 13 12 12 11 11 11 11 10 9 9 9 8 7 6 6 6 5 5 5 5 5 5 6 6 6 6 6 6 6 6 6
4 3 4 2 2 1 1 2 4 5 3 6 12 13 13 11 13 12 12 13 12 13 12 10 7 7 10 9 11 17 23 26 24 25 25 24 23 22 22 22 23 23 22 24 24 24 25 24 23 22 22 20 19 19 18 17 16 16 15 15 14 14 14 13 13 13 12 12 11 11 11 10 10 9 9 8 8 7 6 6 6 6 6 5 6 6 6 7 7 8 7 7 7 7 7 6 6
3 4 3 1 3 4 2 2 4 5 5 9 13 13 13 10 7 9 11 15 15 13 9 8 6 9 13 11 18 26 27 26 27 26 24 24 24 22 21 21 21 20 22 23 24 24 24 24 23 22 22 20 19 19 18 18 17 16 15 15 14 14 13 13 13 13 12 12 11 11 10 10 9 9 8 7 7 7 6 6 6 6 6 7 7 7 7 8 8 8 8 8 8 7 7 8 7
3 3 3 2 3 5 5 5 6 6 7 10 11 12 14 11 8 10 12 14 14 12 9 10 10 12 17 20 26 28 27 27 27 25 23 23 21 20 19 20 20 19 21 21 21 22 23 23 22 22 21 20 20 19 18 18 17 16 16 15 15 14 14 13 13 13 13 12 12 11 10 9 9 8 8 6 6 6 6 6 6 7 7 8 8 8 9 9 9 9 8 8 8 8 7 7 7
4 4 4 5 5 5 6 7 7 8 10 11 10 12 14 12 12 11 12 13 14 14 10 12 14 15 18 23 27 27 27 27 25 24 22 21 20 18 18 19 20 19 20 20 20 21 22 22 21 22 21 20 20 19 18 18 17 17 16 16 15 14 14 13 13 13 12 12 11 10 9 9 8 8 7 6 6 6 6 7 7 8 8 9 9 9 10 10 10 10 9 8 8 8 7 7 6
3 5 4 6 5 4 6 9 7 9 11 11 10 10 11 11 10 10 13 15 15 15 13 14 16 16 18 19 23 26 26 25 25 24 21 20 19 19 19 19 20 20 21 21 21 21 21 22 22 22 21 20 20 19 19 18 17 16 16 15 15 14 14 13 13 12 12 11 11 10 9 9 8 7 7 7 7 8 9 9 9 10 9 9 10 11 11 10 10 10 9 9 9 8 8 7 6
3 5 5 6 7 6 7 10 8 10 12 12 11 9 10 10 10 13 16 14 10 13 16 19 20 19 19 17 20 23 22 23 23 22 21 19 19 19 19 20 21 21 21 22 22 22 23 23 23 22 21 20 20 19 19 18 17 16 16 15 15 14 13 13 12 12 12 11 11 9 8 9 9 8 8 9 9 10 10 10 10 10 10 9 9 11 11 10 9 9 8 8 8 8 8 7 8
0 2 8 8 7 7 9 10 8 10 12 11 11 10 9 11 12 15 18 13 8 11 15 20 21 20 20 18 19 20 20 19 20 21 20 19 20 19 20 21 21 21 22 23 22 22 23 23 23 23 21 20 19 19 19 18 18 17 16 16 15 14 13 13 13 13 12 11 10 9 9 9 10 10 10 11 11 11 10 9 10 10 9 8 8 10 9 8 8 7 6 7 8 8 7 8 9
3 1 9 11 9 10 9 9 9 12 13 11 9 8 8 11 11 11 14 13 10 12 16 18 19 20 22 21 19 17 16 16 18 20 20 20 21 21 23 23 23 23 23 24 23 21 23 23 22 23 21 20 19 19 18 18 18 17 16 15 15 14 14 14 13 13 12 10 10 10 11 11 11 11 12 12 11 11 10 10 9 9 8 7 8 9 8 8 7 7 7 8 8 8 8 8 10
7 5 9 11 9 10 8 11 13 14 14 10 9 8 8 10 9 8 10 13 14 15 16 18 19 21 23 20 18 17 16 17 19 22 23 24 24 24 25 26 26 26 24 24 24 23 23 22 22 22 22 20 19 18 18 18 18 17 15 15 15 14 14 15 14 13 11 10 10 11 12 13 13 13 14 13 12 11 10 10 10 9 9 7 7 7 8 8 8 8 8 9 10 10 9 9 10
6 8 8 10 10 10 12 14 15 14 12 9 10 9 7 9 8 9 12 15 16 16 16 18 18 18 18 17 18 16 16 19 21 24 25 25 26 26 25 26 27 27 26 26 26 25 24 22 22 23 22 21 18 18 18 17 18 17 15 14 14 14 14 14 13 12 12 11 11 13 14 14 14 14 14 13 12 11 10 10 10 9 8 7 7 7 8 8 8 9 9 10 11 12 12 11 11
4 10 9 12 13 13 15 16 16 13 9 10 13 10 9 11 11 9 12 16 16 17 17 17 17 16 15 15 16 15 15 18 21 23 24 25 27 26 25 27 27 27 28 28 27 27 25 24 23 23 23 21 19 19 19 17 18 17 15 14 14 15 15 14 14 13 12 12 11 13 15 15 15 15 14 12 12 11 9 9 8 8 7 6 7 7 7 8 9 10 10 11 12 13 14 13 13
7 13 10 13 16 14 16 16 15 12 9 13 14 11 9 10 10 7 9 16 17 17 17 16 15 15 15 14 14 15 15 18 23 23 22 24 25 25 26 27 28 28 29 28 28 28 26 25 24 23 22 22 21 20 20 18 17 16 15 15 15 17 16 15 15 13 13 13 12 14 15 15 15 15 14 12 12 11 9 8 7 7 7 6 7 8 8 10 11 12 12 12 13 14 14 14 14
11 14 9 13 17 13 16 15 13 11 7 13 15 10 8 7 9 10 12 15 17 17 16 15 14 12 14 14 13 12 13 20 25 22 20 22 24 26 27 28 30 29 30 30 29 28 27 25 24 23 22 23 22 21 20 19 18 16 16 16 17 18 17 15 15 13 13 13 14 15 16 15 16 16 14 12 11 11 10 8 7 8 8 8 8 9 10 11 12 12 12 12 12 13 14 15 15
12 14 11 13 15 11 14 13 11 11 7 11 15 10 6 6 10 14 14 15 16 16 15 14 13 10 11 12 11 9 12 19 21 20 22 25 27 29 29 31 32 31 31 31 30 29 28 26 25 23 22 24 24 21 20 20 18 17 17 16 16 17 16 15 14 13 14 14 14 15 16 16 16 15 14 12 12 12 11 9 8 9 9 10 11 12 13 13 13 14 14 13 12 13 14 15 15
11 13 11 11 10 8 11 11 12 13 10 13 13 6 3 6 12 15 14 15 15 14 13 12 9 9 9 10 10 7 10 15 17 21 26 27 29 31 30 31 33 34 32 31 31 30 29 28 27 24 23 25 24 22 20 19 18 18 17 15 14 14 15 15 14 13 13 13 14 15 14 14 15 14 14 13 13 12 11 10 10 9 9 11 12 13 13 14 15 16 16 16 14 14 14 13 14
8 9 8 6 6 6 8 10 14 12 9 13 11 4 5 8 13 14 14 15 15 13 12 10 8 9 9 9 8 6 7 12 18 24 26 29 31 31 31 31 33 34 33 32 32 31 30 30 27 25 24 24 24 22 21 19 17 16 15 13 11 11 12 11 10 10 10 11 12 12 12 12 13 14 14 13 13 12 11 11 11 10 10 12 14 14 15 15 16 17 17 17 17 17 15 13 13
4 8 5 3 5 6 8 11 15 13 9 10 10 5 5 8 12 13 14 15 15 13 11 10 10 10 10 8 8 6 5 10 18 23 24 28 32 31 31 33 33 34 34 34 33 31 31 30 28 27 26 24 23 22 20 17 15 14 13 11 10 9 9 7 5 6 7 8 11 11 12 13 14 14 15 15 14 12 11 12 12 12 11 13 15 15 15 15 15 16 16 16 17 18 17 15 14
1 4 5 5 5 6 7 9 14 17 12 7 8 7 4 7 11 13 14 14 14 13 11 12 12 11 10 7 7 6 5 7 13 19 21 26 31 33 33 34 34 35 35 34 33 33 32 31 30 29 29 26 24 22 20 18 15 14 13 11 9 8 7 6 6 6 5 6 9 10 12 13 13 13 14 15 14 13 12 12 12 11 11 12 13 12 12 13 13 15 16 15 15 16 17 16 15
1 2 5 6 7 6 6 6 10 17 15 8 8 9 6 8 12 13 14 14 14 12 11 12 12 11 9 7 8 7 6 6 8 15 21 23 27 31 33 35 33 34 35 32 32 33 31 31 31 30 30 27 24 24 21 19 17 14 12 11 9 8 8 7 7 7 6 5 7 8 10 10 9 9 12 13 12 11 11 11 10 8 8 9 10 10 10 10 11 12 14 15 14 15 16 16 16
6 5 6 5 7 9 8 6 10 17 16 10 10 9 8 10 12 12 14 14 13 12 12 12 11 11 9 8 8 7 7 6 7 15 21 23 23 25 31 34 32 31 33 31 28 28 29 30 32 30 30 27 25 24 21 20 19 16 14 13 12 11 11 11 9 10 8 6 5 6 7 7 7 6 7 7 7 7 8 7 6 5 6 8 9 10 11 10 11 11 13 14 14 15 16 16 16
9 9 8 7 7 8 8 8 12 17 13 11 12 11 11 14 13 13 13 13 13 12 11 11 11 11 10 9 8 8 8 6 9 16 20 22 24 24 28 32 31 30 31 30 25 23 25 28 31 30 29 26 24 24 22 20 20 18 16 15 14 14 13 12 11 11 10 9 6 5 5 4 4 3 2 1 2 3 3 3 4 5 6 7 8 9 10 11 11 11 11 12 14 15 15 14 13
7 8 9 10 9 6 7 10 12 12 9 10 13 14 15 15 14 14 13 12 12 12 12 12 12 11 10 9 9 10 9 7 11 18 21 23 26 27 27 29 30 29 29 28 25 23 24 25 27 28 26 24 23 24 22 21 21 19 17 16 15 15 13 11 11 11 9 7 5 5 6 4 4 3 2 1 1 1 2 3 3 3 4 6 7 8 9 9 9 9 9 10 12 13 14 13 11
6 7 8 9 9 6 8 11 12 9 7 8 12 14 15 15 14 13 13 14 14 14 13 13 14 13 11 10 11 11 9 7 11 15 18 22 25 27 27 28 29 28 27 27 25 24 24 24 24 25 24 24 23 23 22 21 20 19 18 17 16 14 12 10 8 8 7 7 7 7 7 5 4 3 3 2 2 0 1 1 2 2 4 7 8 8 8 8 7 6 7 8 9 10 12 10 9
6 5 5 7 6 4 5 8 11 8 5 6 11 13 12 14 14 13 13 14 13 14 15 15 16 14 11 11 12 11 10 8 10 12 15 19 23 25 26 27 28 28 27 26 25 23 24 24 23 23 23 23 23 22 21 20 19 18 16 15 14 12 10 8 6 6 7 7 7 6 6 6 6 5 4 4 3 3 3 2 1 3 6 7 7 6 5 6 7 6 5 6 7 7 8 7 6
6 5 4 5 4 5 5 7 10 7 4 8 12 10 9 10 10 11 14 14 12 14 15 15 16 16 15 15 13 13 13 11 11 11 13 17 21 23 24 25 26 26 26 26 25 24 23 23 23 24 23 22 23 23 20 18 18 17 14 12 11 10 10 9 7 6 6 6 6 6 7 8 9 7 5 4 4 3 2 1 3 5 6 5 5 5 6 6 6 5 4 4 5 5 5 5 5
5 7 6 5 7 10 9 7 8 3 3 10 12 6 5 8 9 10 11 11 11 13 14 14 15 16 16 15 14 15 15 14 13 13 12 14 18 21 24 25 25 25 26 26 26 26 24 23 24 25 24 22 22 22 20 18 18 17 14 13 12 11 10 11 11 11 10 10 10 9 9 9 8 6 5 4 3 2 2 2 4 5 5 5 5 6 6 5 5 4 4 4 5 4 4 5 5
5 7 9 10 14 16 11 9 8 4 1 8 11 6 4 7 11 12 10 10 11 11 14 15 14 13 13 13 14 15 15 14 14 14 14 14 18 21 23 25 24 25 27 27 27 27 26 25 25 25 24 23 22 21 20 19 19 19 17 17 16 14 13 15 15 12 10 9 9 9 9 7 5 4 4 3 2 2 2 2 4 5 4 4 6 7 6 5 5 5 5 5 5 4 4 5 6
5 6 9 11 14 15 12 12 9 5 4 9 11 8 3 5 9 12 12 12 13 13 15 15 14 13 13 13 13 14 14 14 14 15 14 15 18 20 21 25 26 26 28 29 28 27 27 27 26 26 26 24 23 21 21 20 20 20 19 19 19 18 16 15 14 10 8 7 8 8 6 4 3 3 2 3 2 3 3 3 3 4 3 4 6 7 6 6 5 5 5 6 6 5 5 5 6
6 7 8 9 12 16 16 15 11 6 4 4 5 4 5 6 9 10 12 13 13 14 15 16 15 15 15 14 14 15 16 15 14 14 14 16 19 21 23 26 28 28 29 29 29 29 29 28 28 27 26 25 23 22 22 21 21 21 19 18 18 18 16 13 11 10 8 7 7 6 4 4 4 3 3 3 3 3 3 3 3 3 3 5 7 6 5 5 5 4 4 5 6 5 5 5 6
8 9 8 8 12 16 18 15 11 6 6 4 5 2 5 5 5 6 10 11 13 16 18 18 17 17 16 15 16 16 17 17 16 16 16 17 21 25 27 29 30 30 30 31 31 31 30 29 29 27 26 26 24 23 23 22 22 22 20 19 18 16 14 13 11 10 10 9 8 7 5 6 5 4 4 4 3 3 3 3 3 4 5 7 7 5 4 4 4 4 4 5 5 5 4 5 6
8 9 8 5 6 11 15 11 7 5 6 8 10 7 5 4 3 6 7 10 13 15 17 18 17 17 17 16 17 16 15 14 15 16 16 20 25 29 30 31 31 30 31 32 32 31 31 30 29 28 27 26 25 24 24 23 23 22 21 19 18 16 14 13 12 11 10 9 8 8 7 7 6 5 5 4 3 3 3 3 4 5 7 7 6 5 3 3 4 4 5 5 5 4 3 3 4
6 5 6 2 3 5 8 3 4 6 3 7 12 13 7 2 4 6 8 14 18 15 13 15 15 17 17 16 15 15 13 12 13 14 16 21 28 30 31 31 31 31 32 33 32 32 32 31 30 29 28 27 26 25 25 25 24 23 22 20 18 17 16 14 13 12 11 10 10 10 9 8 6 5 4 3 4 4 4 4 5 6 6 5 4 5 4 4 4 4 5 5 4 4 3 3 3
5 2 2 3 3 3 3 4 3 5 5 6 12 16 11 5 5 7 12 18 19 16 16 18 19 19 17 15 14 15 14 13 14 13 14 17 20 24 27 29 30 31 31 32 32 32 32 32 31 30 30 29 28 27 27 25 24 23 22 19 18 18 17 16 15 13 13 13 13 12 11 8 6 6 6 5 5 5 5 5 6 6 5 4 3 4 5 5 5 5 4 4 4 4 3 3 3
6 3 4 3 2 1 2 1 2 5 5 6 11 16 11 7 7 12 18 20 16 15 17 20 21 20 17 15 14 14 13 14 15 13 14 14 14 18 24 27 29 31 32 33 33 32 33 33 33 32 32 31 29 29 27 26 25 23 21 19 19 18 17 17 15 14 14 14 13 13 11 9 8 8 7 7 6 5 6 7 5 4 4 3 3 3 4 5 4 4 4 4 5 5 3 3 4
5 5 5 5 3 2 2 3 2 2 5 7 7 11 7 5 6 12 20 22 20 17 16 18 20 19 17 16 15 14 15 16 15 14 14 14 14 18 24 27 29 31 33 34 34 34 34 34 34 34 33 33 31 29 28 27 25 23 21 21 20 19 18 16 14 14 14 13 14 13 11 10 9 8 8 8 6 5 5 5 3 3 3 3 3 4 4 5 4 3 4 5 5 4 3 3 3
6 6 6 5 5 4 4 4 3 4 5 6 3 5 5 4 6 11 20 23 20 14 11 13 15 17 17 15 15 15 15 15 13 14 15 15 17 22 25 27 29 31 34 35 35 35 35 35 36 35 34 33 32 31 30 29 26 23 22 22 20 19 18 16 14 14 14 14 14 12 10 10 9 7 8 8 6 4 4 4 3 3 2 2 3 4 4 4 4 3 4 5 4 3 3 3 3
6 4 7 4 6 6 3 4 6 5 2 3 2 3 4 5 4 4 10 15 13 12 10 12 14 15 14 13 13 14 13 13 13 14 15 15 19 24 26 27 29 31 33 34 35 37 37 36 36 36 35 35 34 32 31 29 26 24 23 22 21 19 17 15 14 14 13 13 12 10 11 10 8 7 8 8 7 5 4 4 4 3 2 2 3 4 5 5 5 4 3 4 5 4 3 4 4
3 3 5 4 6 8 4 3 2 3 2 4 2 3 4 2 4 5 4 7 9 12 13 14 15 15 15 13 13 13 12 14 14 14 14 15 18 23 26 28 29 30 33 35 37 39 40 39 38 36 35 35 34 33 32 30 27 26 24 23 21 20 17 15 14 13 13 12 11 11 11 9 8 8 8 8 7 6 5 5 4 4 4 3 3 4 5 6 6 6 5 5 7 6 5 5 5
4 4 7 3 2 4 4 2 2 4 2 5 2 4 3 0 3 4 5 9 10 13 16 16 14 14 15 14 13 14 14 15 16 15 14 14 17 22 26 29 32 34 36 38 39 41 41 40 40 38 36 35 35 34 33 31 29 28 26 25 23 20 17 16 13 12 13 13 12 12 10 9 9 9 9 8 7 7 7 7 6 5 5 5 4 4 5 5 6 6 7 8 8 7 6 7 7
6 5 6 5 3 1 1 3 2 1 2 4 4 5 3 4 4 3 6 11 13 15 16 16 15 13 14 13 13 14 13 13 13 13 12 12 15 22 27 30 32 35 37 38 39 39 39 40 40 40 39 38 37 36 34 33 31 29 27 26 24 21 18 16 14 13 14 13 13 12 10 10 10 9 10 9 9 9 10 9 7 7 6 6 6 6 6 6 7 7 8 9 9 8 7 7 8
2 2 3 2 4 5 3 3 5 4 3 3 4 5 3 5 5 6 11 14 14 16 14 13 15 14 13 13 12 11 11 12 12 12 12 13 15 23 29 31 33 35 35 36 37 37 38 39 39 39 38 36 36 35 34 34 32 30 27 26 24 21 19 17 15 14 14 13 12 12 12 11 11 11 11 11 12 12 12 10 9 8 8 7 6 7 8 9 9 9 9 10 9 8 8 8 9
2 3 4 2 0 2 2 1 3 5 4 3 3 4 5 5 4 8 11 9 9 12 12 11 12 13 13 12 12 11 11 12 12 12 13 13 16 23 29 31 33 33 32 32 35 36 37 37 37 38 36 35 35 35 35 34 33 31 28 27 25 22 20 19 17 15 14 13 12 12 13 12 13 12 13 14 14 14 13 12 10 11 11 9 8 7 7 8 10 10 9 10 10 9 10 10 11
8 6 6 6 4 3 3 2 2 3 4 5 5 4 6 6 4 6 9 8 8 11 13 11 11 12 12 11 14 14 12 13 13 13 14 13 15 21 26 27 27 28 29 31 33 33 34 35 36 36 36 36 36 36 35 34 33 31 30 28 26 23 21 20 18 16 14 13 12 11 12 13 13 13 14 15 15 15 15 14 13 13 14 13 11 9 8 9 10 11 10 10 11 11 11 12 13
Wind_Direction
204 216 219 204 176 151 162 168 84 309 76 65 53 70 75 98 124 132 131 156 106 86 132 72 94 96 94 110 127 94 40 36 299 113 117 125 137 142 141 143 143 138 135 129 125 122 122 123 120 121 121 121 123 124 125 125 124 123 122 122 124 126 127 129 130 130 130 130 129 127 126 124 125 126 127 125 122 121 119 118 117 116 113 110 106 105 107 107 108 106 104 102 102 100 96 93 92
206 213 216 219 177 157 180 150 88 7 56 66 55 82 92 91 104 109 114 118 97 102 90 84 86 85 97 105 110 74 40 16 44 85 95 122 127 137 144 146 145 139 133 130 127 125 125 125 121 118 119 121 122 123 122 122 122 123 123 124 125 126 127 128 129 130 130 130 129 129 128 127 127 127 127 126 124 123 122 122 122 120 115 112 109 109 110 110 110 109 108 105 102 98 94 92 90
207 201 194 193 181 199 285 70 89 69 72 83 62 74 96 93 97 100 105 105 105 107 92 92 83 80 99 82 43 51 53 12 66 84 106 126 129 143 149 149 146 139 132 131 129 128 128 126 122 119 120 121 121 121 121 122 123 123 124 125 127 128 128 129 131 132 131 131 131 131 131 131 131 131 131 130 129 129 129 129 126 122 118 115 113 112 112 112 112 112 112 108 105 102 98 96 93
206 190 185 182 152 241 41 60 120 103 96 118 90 84 92 98 107 108 112 112 109 101 91 93 70 42 87 90 73 67 88 34 62 88 121 135 140 148 152 152 146 140 137 135 132 130 128 128 125 122 122 121 120 120 121 123 124 125 126 126 126 127 128 129 130 131 131 132 131 131 132 132 132 134 134 135 136 136 135 132 128 124 121 118 116 115 115 115 115 115 114 111 109 106 101 97 94
206 195 191 193 93 65 97 76 129 100 124 150 108 94 94 103 111 112 114 110 106 99 97 97 86 77 83 95 128 87 101 94 81 96 121 138 142 147 153 152 146 143 143 140 136 131 129 129 126 124 124 122 121 121 124 126 128 128 129 128 127 128 128 128 129 130 130 131 130 130 132 133 134 135 137 138 140 139 136 133 129 126 124 122 120 119 118 118 117 116 115 113 111 105 98 94 91
210 199 189 200 258 168 76 68 92 90 134 127 111 106 100 103 104 103 98 92 88 88 91 87 98 98 80 60 55 112 149 118 118 118 127 138 142 148 149 148 148 146 147 145 139 133 131 131 129 127 126 126 125 126 129 130 130 131 131 131 131 130 130 131 130 130 130 130 130 131 132 133 134 136 138 140 141 139 136 134 131 129 128 126 125 123 120 120 120 118 117 115 112 102 90 84 84
201 173 169 188 295 68 83 91 102 90 117 113 118 117 111 110 107 103 97 94 87 87 92 89 105 96 80 81 70 118 133 120 133 136 137 140 142 145 144 146 148 147 150 148 142 137 134 133 133 132 131 131 131 132 132 131 132 133 134 134 134 133 134 134 133 133 133 133 133 134 135 135 137 139 141 142 142 139 137 136 134 132 130 130 129 129 129 128 125 120 115 108 100 87 72 65 73
207 187 158 108 16 32 87 91 95 107 118 111 120 120 120 118 112 104 100 101 101 103 100 105 112 89 65 86 94 107 110 120 132 136 139 139 142 143 145 149 149 149 151 149 143 140 137 136 136 135 136 136 136 136 135 135 135 135 137 138 137 136 137 136 136 137 137 137 136 136 137 139 140 141 142 143 142 141 141 140 138 136 134 136 136 137 137 132 126 115 97 79 54 35 27 27 43
207 222 16 81 55 32 76 71 78 98 101 99 110 113 112 108 103 102 100 96 102 106 106 134 120 94 86 83 93 96 102 122 129 135 140 141 144 143 148 153 152 152 151 149 144 141 140 139 139 139 140 139 140 140 139 139 138 139 139 140 139 138 138 138 138 139 139 139 139 140 140 141 142 142 144 144 144 145 146 145 143 142 142 143 143 143 141 129 114 98 74 43 14 5 352 352 357
200 197 46 73 78 52 57 56 74 85 92 96 101 105 105 105 103 104 105 102 105 98 96 111 96 106 119 94 92 103 117 131 133 137 143 144 145 143 151 157 156 155 152 149 147 145 143 142 143 144 144 143 143 143 143 142 142 143 142 141 141 141 140 139 139 140 141 141 142 143 143 143 143 143 145 146 148 150 150 150 149 149 150 150 151 152 149 139 118 88 42 1 347 325 307 321 322
287 338 77 67 53 67 98 94 90 95 102 102 104 109 111 111 107 103 104 103 103 103 109 101 93 111 113 93 84 115 128 138 139 143 148 147 146 144 152 161 160 157 154 152 151 149 146 148 149 148 148 147 146 146 146 146 146 146 144 144 144 143 142 140 140 141 142 143 144 144 144 144 144 145 147 151 153 154 155 155 156 158 161 164 170 177 168 151 156 15 356 338 328 315 302 299 290
344 342 71 71 61 103 146 118 105 107 110 112 116 121 120 114 110 113 113 115 119 119 133 120 114 123 105 98 112 126 136 143 146 148 149 148 147 145 152 163 162 158 158 156 153 152 151 153 154 153 152 151 150 149 149 149 148 148 146 145 144 143 141 141 141 142 144 144 146 146 146 146 147 149 152 155 157 158 161 165 169 172 177 186 203 233 257 218 287 315 323 323 320 314 309 304 294
134 165 85 84 162 123 88 108 117 111 102 115 125 129 122 116 119 127 126 130 135 128 129 122 132 134 103 114 130 137 148 154 152 151 150 148 147 147 152 159 160 160 160 158 156 154 156 157 158 156 154 153 152 151 152 151 150 150 148 146 143 143 143 144 145 146 147 147 148 148 149 150 151 155 157 159 161 164 169 176 181 185 195 214 234 249 266 276 291 306 314 315 317 315 310 307 301
150 158 105 120 151 77 41 100 119 98 92 127 130 130 117 119 131 135 135 134 132 129 130 132 134 114 107 130 137 158 165 161 157 153 151 147 146 146 149 154 157 159 158 158 158 157 158 159 159 157 156 155 153 153 154 153 153 151 149 147 146 147 149 150 151 151 152 152 152 152 153 156 158 161 164 167 168 171 179 186 191 199 216 232 241 249 261 278 293 305 313 311 311 312 310 307 302
156 114 90 114 86 54 71 130 125 105 117 134 121 125 116 123 137 135 138 130 121 134 134 140 140 117 145 161 153 172 164 160 159 150 146 145 144 142 146 151 153 154 155 158 158 157 158 159 159 158 159 157 156 157 156 156 155 153 152 151 151 153 155 156 157 157 157 157 157 159 160 163 165 168 171 175 177 180 188 195 203 212 229 243 253 263 265 274 289 299 305 307 307 305 305 307 301
139 98 72 91 154 143 239 152 117 115 147 117 113 120 116 129 140 133 137 127 128 146 140 153 165 135 156 164 151 158 157 157 154 145 141 140 140 137 141 147 151 153 155 158 157 157 158 159 160 160 161 159 159 159 158 158 158 158 157 157 158 158 160 161 163 163 164 164 166 167 169 171 173 176 181 185 187 192 202 212 223 225 234 251 263 267 266 270 281 291 297 300 300 297 297 298 297
98 92 95 150 182 168 200 158 134 141 139 118 122 126 122 137 136 114 123 126 134 145 139 142 138 123 138 146 145 150 153 151 147 144 139 136 137 134 138 144 149 154 157 159 158 160 161 162 163 162 163 162 162 163 162 163 163 165 163 163 163 164 166 166 168 169 171 172 173 176 176 179 181 184 190 195 202 209 219 226 234 238 240 251 259 263 266 272 279 286 292 298 299 296 294 291 296
120 123 140 183 192 178 182 171 162 142 125 124 133 134 130 135 122 111 120 126 129 125 121 119 110 113 126 137 142 146 150 148 146 146 141 138 140 138 140 146 151 156 159 161 163 166 165 165 165 164 165 166 167 167 167 168 168 171 169 169 169 171 172 173 175 176 178 179 181 184 184 186 189 193 197 206 220 227 236 236 238 245 246 250 254 261 270 277 282 283 283 291 297 297 291 289 296
148 142 150 197 199 188 174 160 158 137 134 136 136 135 133 135 131 130 130 130 126 117 115 113 113 118 125 137 143 144 147 147 148 147 144 144 145 144 146 150 154 158 162 165 169 172 170 168 168 168 169 171 172 172 172 173 174 177 176 175 176 176 178 181 183 183 185 188 189 191 193 198 202 204 207 221 240 248 256 251 249 254 254 257 259 266 275 280 281 278 275 279 285 286 281 284 294
201 147 149 206 178 165 157 149 153 139 135 131 134 134 126 130 130 128 126 126 129 129 131 126 127 132 134 140 141 142 145 145 146 146 146 147 147 148 151 154 157 162 166 169 173 176 175 173 172 173 173 175 176 176 177 179 180 182 182 183 183 182 185 188 189 190 192 196 199 199 201 209 216 219 221 231 241 247 254 252 252 257 260 266 270 274 278 280 279 278 278 277 277 277 279 287 292
221 149 157 187 148 144 151 147 152 134 129 129 133 123 108 115 118 123 125 123 133 142 146 143 142 142 139 141 141 143 144 143 146 146 147 148 149 153 156 158 161 166 169 170 175 179 178 177 176 175 176 178 180 181 182 184 185 186 188 190 190 189 191 193 195 198 199 202 205 209 213 217 225 228 228 233 238 243 249 252 253 255 261 270 276 277 275 276 278 279 280 279 280 281 288 296 296
56 151 151 154 142 147 154 150 146 123 118 121 120 113 110 114 120 132 134 135 154 153 149 146 144 145 143 143 144 145 145 146 148 149 152 153 154 156 160 163 163 166 168 172 178 180 180 179 178 178 180 182 183 186 186 187 189 190 192 193 195 197 199 200 202 206 208 208 210 219 224 225 230 232 230 230 234 241 245 251 256 258 263 270 271 272 273 274 271 272 276 280 284 286 294 302 302
113 161 137 138 143 146 157 146 123 109 109 114 117 117 116 116 129 144 138 139 149 144 143 143 144 145 142 141 144 148 150 153 154 156 160 160 161 162 163 166 166 167 170 175 180 181 183 184 183 183 185 187 188 190 190 191 194 194 195 197 200 202 204 208 210 212 214 214 219 226 231 234 233 233 232 230 233 237 244 250 256 260 261 263 261 266 275 276 272 275 281 284 285 287 296 303 305
130 128 128 130 129 124 132 121 110 110 115 121 120 113 112 120 137 144 129 132 136 137 139 138 142 143 141 143 148 153 155 159 162 165 167 167 169 168 166 168 169 170 172 176 180 183 187 189 188 188 190 191 192 195 196 196 197 198 200 202 207 208 210 214 214 216 218 222 228 231 234 235 234 234 235 236 237 239 246 250 251 249 248 250 253 265 278 280 281 283 286 288 289 290 294 298 301
120 119 123 117 105 100 103 105 107 110 114 114 106 98 98 110 116 122 127 130 133 136 137 137 141 144 145 149 153 156 161 165 168 169 169 171 173 171 168 170 170 172 174 176 180 185 189 192 192 192 193 193 194 198 201 202 201 201 203 207 211 214 216 219 221 222 223 226 231 234 234 233 232 234 237 240 241 246 251 251 247 241 241 244 251 269 281 286 292 294 295 296 294 292 290 293 296
137 118 122 113 105 106 103 102 107 109 114 113 102 95 96 104 100 106 128 132 134 136 138 142 145 149 153 156 159 163 168 168 171 172 171 172 173 171 169 170 171 173 177 178 181 187 191 193 193 193 193 192 194 200 204 205 204 203 204 210 215 217 218 220 224 226 225 226 232 235 234 233 234 235 240 242 246 253 254 252 249 242 248 256 263 277 282 286 295 298 297 296 295 294 292 294 294
144 121 118 112 110 111 107 107 111 109 115 116 111 111 111 113 108 110 135 133 136 138 142 149 152 158 161 163 166 168 172 171 173 174 171 172 172 171 170 170 172 176 178 179 183 187 189 191 192 192 193 193 195 201 205 206 205 204 207 213 217 218 218 218 222 224 223 229 236 234 233 235 236 236 239 241 246 251 253 260 264 263 274 283 284 290 291 294 299 301 299 294 291 291 292 292 291
130 116 95 102 110 114 115 117 121 112 114 120 115 111 106 105 117 137 148 140 142 143 148 156 159 165 163 166 170 169 175 173 173 172 169 171 172 171 171 171 174 177 179 181 184 185 186 190 191 192 192 194 200 204 207 207 205 206 210 216 218 216 217 219 221 223 227 236 239 233 234 236 235 236 236 241 250 257 264 271 276 283 296 304 302 302 303 300 298 300 300 296 292 289 288 288 290
120 112 100 109 112 121 129 130 134 122 127 130 111 97 102 115 132 144 149 145 146 145 152 161 163 166 160 164 170 170 175 172 171 172 170 170 171 172 173 175 176 177 180 182 184 183 186 189 190 192 193 196 202 206 206 205 207 210 212 216 218 217 220 224 225 226 234 241 238 235 237 236 236 237 237 243 255 267 274 277 280 287 301 309 309 309 308 303 297 294 293 293 294 294 293 292 290
119 117 116 122 115 138 149 138 136 127 142 143 116 110 159 142 145 150 150 147 145 147 157 165 163 162 160 164 170 175 174 170 169 171 172 170 172 175 176 177 177 176 179 181 183 185 187 189 190 193 193 195 201 205 207 207 209 209 208 213 218 220 222 226 228 231 241 243 236 235 237 235 237 241 245 248 257 267 273 279 284 291 306 310 308 307 303 300 295 292 291 293 296 296 295 299 298
125 119 114 131 129 167 173 146 136 131 156 148 117 134 182 161 156 154 153 150 148 154 163 163 159 160 162 164 169 175 176 173 171 171 172 169 172 178 177 178 179 177 178 181 183 186 187 188 190 192 192 193 196 202 207 207 208 206 207 214 219 222 221 223 232 239 249 247 239 242 245 241 240 245 251 252 259 269 274 281 288 295 305 307 303 300 297 298 296 295 296 297 298 297 294 298 301
129 125 127 159 137 166 175 153 144 139 157 143 112 128 170 164 165 159 156 155 153 159 164 158 155 162 165 165 169 177 184 178 174 176 174 168 171 178 177 177 179 179 179 182 185 186 187 189 190 191 191 191 190 197 206 206 206 209 212 216 220 221 215 215 230 242 251 243 240 251 254 250 249 251 251 252 261 267 271 283 292 291 290 295 299 299 299 301 303 304 306 304 301 301 299 298 300
87 116 149 172 145 162 167 165 158 144 148 157 129 139 167 168 169 164 161 160 157 160 162 158 157 164 167 166 172 176 180 175 173 180 178 169 171 177 178 176 177 180 180 181 184 185 187 189 191 192 191 191 189 192 200 201 203 213 218 221 224 219 209 211 218 229 236 220 220 230 238 246 252 252 251 256 266 268 273 288 295 288 284 292 300 303 306 309 312 312 313 313 308 304 301 299 301
209 107 151 172 155 163 170 172 168 148 150 171 148 145 166 171 167 165 166 163 159 162 162 161 162 166 170 168 170 176 179 173 172 179 178 172 170 173 177 176 176 179 178 179 183 186 189 189 191 194 192 191 189 190 194 195 198 205 208 208 209 204 205 214 229 241 239 209 202 215 236 251 258 258 258 262 270 272 280 290 295 296 297 303 307 311 316 319 322 317 315 316 313 307 301 299 300
179 160 154 170 155 168 185 173 169 162 159 159 146 148 160 165 168 165 168 166 160 166 164 162 165 166 172 170 168 178 181 178 178 177 173 171 168 167 174 177 176 176 177 178 178 182 189 189 190 192 191 191 190 190 192 193 197 200 201 202 205 207 212 220 239 253 254 256 254 251 262 268 268 273 268 267 275 282 289 295 305 327 327 320 319 321 323 324 324 317 314 317 315 310 302 300 304
181 167 153 167 165 177 188 171 174 169 157 154 152 155 161 166 175 171 171 168 160 165 163 162 168 169 173 174 170 176 184 183 174 172 167 165 163 159 165 173 174 173 174 175 169 168 176 182 187 189 189 190 188 189 192 194 197 203 209 212 214 217 220 225 235 244 253 267 274 269 270 265 258 256 237 256 286 297 317 334 339 345 334 324 323 323 322 320 318 313 311 315 315 312 307 307 312
193 168 156 173 176 185 182 169 182 167 142 163 162 155 164 169 178 178 172 167 162 165 165 166 170 173 174 175 173 175 185 178 158 163 162 157 156 153 156 164 169 170 170 172 168 164 165 169 179 184 186 187 186 188 192 194 197 201 205 208 210 214 219 226 232 239 250 258 254 250 255 250 235 205 135 106 77 19 6 354 333 325 317 314 314 312 310 311 313 312 312 314 314 312 311 314 319
226 182 166 181 183 189 183 171 183 172 137 169 164 153 166 172 177 183 173 168 172 171 168 170 173 176 176 174 176 176 179 167 150 157 159 156 154 153 155 158 163 167 169 173 174 171 169 168 172 176 181 185 186 190 193 196 199 199 199 201 206 212 219 224 224 222 218 223 234 243 247 240 210 166 134 134 138 197 275 262 269 292 307 307 307 305 302 304 311 315 316 318 316 311 311 319 325
232 202 168 188 191 161 188 189 183 172 132 164 166 156 171 179 176 182 180 177 181 178 171 172 173 174 177 175 174 174 171 165 158 160 162 161 159 159 161 163 166 169 172 176 177 174 175 176 177 177 180 185 190 194 196 199 202 201 202 205 206 208 205 195 190 197 206 218 223 221 220 206 176 156 150 155 164 178 191 198 256 315 320 313 310 313 314 316 321 319 315 316 316 314 319 335 343
214 202 171 193 197 151 196 211 185 175 133 157 165 156 171 182 179 186 190 186 185 183 177 173 173 175 179 179 172 171 173 170 168 167 167 166 164 165 167 168 171 172 173 176 177 176 178 181 182 181 183 189 192 196 199 200 199 199 202 201 193 186 182 176 169 172 178 167 153 156 169 164 155 155 157 160 170 182 209 269 319 327 332 331 332 339 340 344 343 337 335 331 325 324 333 344 343
215 194 183 178 186 193 203 183 163 147 89 144 146 133 183 186 184 194 200 193 188 186 180 178 181 180 178 176 172 173 174 172 171 172 173 170 169 172 173 173 174 175 176 178 180 181 183 183 184 186 187 189 192 195 197 196 194 189 186 180 175 173 172 170 156 143 138 136 137 141 149 153 158 171 182 196 218 251 277 296 322 332 344 356 359 359 358 2 9 10 7 355 340 333 334 332 330
252 211 197 181 183 199 195 153 139 105 105 171 145 129 231 208 190 194 194 195 195 190 186 186 187 184 179 177 177 177 176 175 173 174 176 175 173 174 176 176 176 179 182 183 185 186 186 186 187 190 191 191 193 194 194 194 191 186 181 177 179 178 171 169 168 158 146 144 147 149 154 164 177 189 209 236 262 292 282 278 315 339 357 5 1 359 1 3 8 17 14 7 2 350 339 329 325
260 232 207 190 182 186 172 153 150 146 198 201 168 152 197 218 209 202 189 189 196 195 193 192 188 186 186 183 181 179 178 177 176 177 176 175 174 174 177 179 179 184 186 186 187 188 189 188 189 192 193 194 195 194 194 194 191 187 184 183 185 184 177 176 182 184 174 162 156 159 162 172 195 213 252 277 291 297 288 289 319 343 354 356 352 348 355 2 8 21 21 14 14 7 354 343 337
246 237 206 185 170 169 167 165 176 180 153 184 197 139 124 198 217 201 188 186 193 198 198 197 194 191 190 188 184 181 180 179 177 178 178 177 178 178 179 182 183 187 188 186 187 190 191 192 192 194 195 195 195 193 192 192 189 185 185 186 186 186 183 178 180 188 195 194 186 188 194 201 215 233 260 273 274 277 283 296 311 320 330 342 342 337 347 5 11 22 24 17 12 8 1 352 351
239 236 211 176 165 172 172 173 187 178 116 157 232 119 120 220 226 175 188 192 194 201 201 200 198 194 192 190 187 185 183 181 179 179 180 180 181 182 182 184 186 188 188 188 190 192 193 195 194 195 195 194 193 192 191 190 188 186 185 185 181 181 181 175 178 185 189 191 189 192 198 200 209 233 253 254 247 257 272 274 278 297 322 334 337 332 339 3 9 6 2 1 355 350 351 349 351
236 241 221 162 142 175 179 177 179 149 131 184 209 185 165 246 233 164 184 203 204 204 202 201 199 194 194 192 189 188 184 183 182 181 182 183 184 184 184 184 187 188 189 190 192 193 194 195 195 195 195 193 192 192 190 188 188 188 187 185 181 176 174 174 179 182 183 184 185 188 193 198 213 240 250 241 239 264 268 254 272 303 318 327 338 338 326 333 346 339 333 334 335 338 344 351 355
234 270 242 209 53 145 173 171 118 136 183 209 202 199 189 222 238 193 187 206 204 196 197 202 199 196 196 194 189 187 183 182 185 183 184 186 185 184 182 182 185 187 189 191 191 192 193 194 195 194 194 192 191 191 190 189 191 191 189 188 185 180 179 183 185 187 189 187 186 190 193 204 220 227 228 235 249 257 246 251 283 302 311 318 334 342 333 317 310 316 326 329 341 360 10 9 2
217 275 205 227 322 69 103 5 47 163 228 228 198 198 198 211 239 214 210 217 205 188 190 195 196 197 197 193 189 186 183 182 185 185 185 185 182 182 181 182 183 184 187 188 189 190 191 193 194 193 192 191 191 192 192 192 192 192 190 190 190 187 188 192 192 190 190 187 187 188 190 199 205 199 207 227 228 224 237 265 281 287 299 306 308 321 328 321 301 298 321 339 352 3 10 2 354
210 198 100 121 281 36 95 278 215 197 244 240 188 184 199 221 222 208 212 221 212 194 192 190 191 192 191 191 189 186 184 183 186 185 184 183 180 181 182 181 182 183 185 186 187 188 189 191 193 192 191 191 192 192 193 192 191 192 193 190 190 191 191 193 193 191 190 190 190 188 190 194 193 197 210 217 218 234 256 263 262 270 282 280 276 285 306 319 305 286 311 332 338 340 332 335 342
205 186 137 133 145 129 197 224 228 216 251 258 189 172 195 244 237 211 206 213 212 200 191 187 186 186 186 191 188 185 186 186 187 186 184 184 182 182 183 181 181 183 185 185 185 186 187 189 191 192 192 192 192 192 192 192 192 194 195 190 188 191 192 194 197 195 195 197 195 195 197 194 195 205 210 211 225 249 249 231 228 263 270 250 259 270 283 305 306 298 316 321 320 316 305 318 334
217 174 142 153 152 155 204 201 193 204 237 271 221 172 185 198 226 211 201 211 211 194 178 172 179 185 184 187 187 185 187 186 186 187 186 186 183 182 182 182 182 183 183 183 183 184 185 187 190 192 192 191 192 193 192 192 193 195 194 193 193 194 195 196 195 195 197 197 197 198 196 193 195 204 207 212 221 224 211 212 239 266 269 257 264 269 276 287 293 307 324 318 312 306 296 302 311
232 145 121 168 175 163 188 193 186 176 202 266 221 203 212 199 258 254 200 208 198 170 159 159 176 187 181 182 189 187 186 186 187 190 188 186 184 182 181 181 183 183 182 182 183 183 185 188 190 193 193 193 193 193 193 194 194 193 193 196 198 196 195 195 191 195 199 198 200 200 191 191 198 202 210 215 214 218 224 232 252 261 267 287 282 274 277 276 273 280 298 310 312 303 296 303 303
224 165 173 211 170 145 143 237 250 102 147 257 227 238 286 270 311 346 118 167 169 162 168 172 178 181 176 182 188 186 186 187 189 191 186 183 182 182 182 181 182 182 182 183 184 185 186 188 189 192 194 194 193 194 195 195 196 194 194 198 199 198 197 196 193 196 197 195 198 196 194 203 208 208 217 217 216 230 237 237 253 262 268 286 288 280 280 273 267 266 271 293 304 297 287 289 294
152 201 209 205 114 110 112 169 337 60 177 269 268 235 274 209 274 330 107 146 169 174 179 182 179 174 177 184 184 186 189 189 191 191 185 182 182 182 182 183 184 184 185 185 186 186 187 188 190 191 193 194 194 195 196 196 197 196 197 199 199 200 202 199 196 194 191 191 194 198 208 219 210 207 215 219 225 232 231 238 249 252 262 273 270 269 274 270 264 265 270 283 294 293 283 279 283
149 188 192 158 144 190 131 163 176 125 203 274 301 278 255 188 222 259 164 171 180 182 184 184 179 174 179 183 183 187 188 188 192 189 184 183 182 182 183 184 186 187 187 187 186 186 187 189 191 192 194 196 196 196 196 197 198 197 198 200 201 204 205 201 196 190 189 194 199 206 222 228 215 212 217 225 238 238 236 242 243 242 256 264 257 254 259 265 266 268 270 275 285 286 281 282 281
147 153 179 165 157 176 189 178 165 164 191 229 285 303 278 222 211 197 195 193 184 181 183 183 181 178 181 181 179 182 184 188 191 188 186 185 183 185 185 185 187 188 188 187 185 186 187 189 190 192 194 195 195 196 197 197 199 198 197 199 202 205 203 201 198 195 197 203 207 216 231 231 221 220 226 234 244 245 244 243 237 238 250 257 256 253 253 257 261 264 264 267 273 273 274 283 283
194 164 189 224 214 147 164 204 152 144 158 181 219 266 268 250 216 188 196 196 176 171 172 178 184 183 182 177 172 177 185 189 190 187 186 185 183 186 188 188 188 187 187 186 185 187 188 188 189 190 191 192 194 196 197 198 198 198 198 200 203 205 203 202 202 202 207 212 217 225 230 228 224 227 233 238 244 247 250 249 242 243 249 252 253 251 252 256 257 258 257 256 259 259 264 275 278
183 173 189 196 183 133 137 253 270 135 151 169 177 222 264 263 225 182 177 168 161 165 169 177 186 181 178 176 176 181 185 187 189 188 185 183 183 186 188 187 185 184 185 186 187 187 187 188 189 190 190 192 194 196 197 199 198 197 199 201 203 203 204 205 205 207 213 217 222 223 221 224 229 231 233 237 244 249 253 255 252 251 253 254 252 250 252 255 256 258 257 255 253 252 257 265 269
Height
757 761 762 764 764 767 771 773 790 793 790 804 799 799 797 785 791 800 805 800 798 794 784 782 781 783 789 796 802 804 805 807 810 818 825 818 812 816 816 818 819 819 821 820 821 822 822 823 824 826 827 829 832 832 831 830 830 830 831 833 834 836 837 839 840 841 842 842 843 843 844 845 846 847 847 848 848 849 849 849 849 849 849 850 850 850 850 851 851 851 851 851 852 852 852 852 852
757 761 761 763 762 768 772 769 793 800 798 812 802 798 796 784 792 799 801 798 796 791 781 782 784 786 788 792 795 800 807 807 804 807 812 811 814 817 817 819 820 820 821 821 822 823 824 825 825 826 827 829 831 831 832 831 832 833 834 835 836 838 838 840 841 842 843 843 844 844 845 846 847 847 848 848 849 849 849 849 850 850 850 850 851 851 851 852 852 852 852 852 853 853 853 853 853
757 759 759 762 762 765 768 771 795 805 809 818 807 794 789 792 799 797 795 792 789 784 782 783 786 789 790 797 799 806 814 808 803 805 809 813 814 817 819 819 820 821 821 822 824 824 825 826 827 828 828 830 831 831 832 833 834 835 837 837 838 839 840 841 842 843 843 844 844 845 846 847 847 848 849 849 850 850 850 851 851 851 851 852 852 852 852 853 853 853 853 854 854 854 854 854 853
756 758 758 759 765 769 774 785 795 802 812 815 810 796 788 796 797 794 791 787 784 781 785 787 792 791 790 805 807 808 815 809 806 807 810 813 814 817 818 819 821 822 822 824 825 825 826 827 828 829 830 831 831 832 833 835 836 838 839 840 840 841 842 842 843 844 844 845 845 846 846 847 848 849 849 850 851 851 851 852 852 852 852 852 853 853 853 853 854 854 854 854 854 854 854 854 854
756 758 757 759 769 771 775 788 791 798 806 804 808 800 789 792 791 792 788 785 783 784 787 788 798 795 791 803 805 811 815 810 809 807 810 814 815 817 818 820 822 822 824 825 826 826 827 828 829 830 831 832 832 834 835 836 838 839 840 841 842 842 843 843 844 844 845 845 845 846 847 847 848 849 850 850 851 851 852 852 852 852 852 853 853 854 854 854 854 854 855 854 855 854 854 854 854
754 756 757 759 763 762 777 794 795 798 793 788 801 798 789 789 788 790 788 787 784 784 787 789 797 797 801 804 802 809 810 808 810 809 810 813 816 818 819 821 822 823 825 826 827 827 828 830 831 832 832 834 835 836 837 838 840 841 841 842 843 843 844 845 845 846 846 846 846 847 847 848 848 849 850 851 851 852 852 852 852 853 853 853 854 854 854 855 855 855 855 854 854 854 854 854 853
752 757 759 764 764 763 786 799 796 799 787 779 791 791 788 786 785 788 790 792 792 790 789 792 792 797 811 808 808 809 806 808 808 809 811 813 817 818 820 821 823 824 825 827 828 828 829 831 832 833 834 835 836 838 839 840 841 841 842 843 844 844 845 846 846 847 847 847 847 848 848 849 849 850 851 851 852 852 852 853 853 853 854 854 854 855 855 855 854 854 854 854 854 853 853 853 853
751 757 757 767 777 776 790 795 791 792 783 776 780 783 784 783 782 787 794 795 798 797 793 795 789 801 815 808 815 813 806 810 808 811 813 814 818 819 821 821 823 824 826 827 828 830 831 832 833 834 835 837 838 839 840 840 842 842 843 844 845 846 846 847 847 848 848 848 848 849 849 849 850 851 851 852 852 853 853 854 854 854 854 855 855 855 855 854 854 854 854 854 853 853 853 853 853
750 756 757 769 784 787 791 793 790 786 781 778 778 779 779 780 782 788 796 797 798 798 798 797 789 803 818 812 817 814 808 812 811 814 814 817 819 819 821 821 823 824 826 828 829 831 832 834 834 836 836 838 839 839 840 841 843 843 844 845 846 846 847 847 848 848 848 849 849 850 850 851 851 852 852 853 853 854 854 855 855 855 855 855 855 855 855 854 854 854 853 853 853 852 852 852 852
752 755 761 775 787 794 798 796 791 786 782 779 778 778 778 780 783 789 795 799 797 799 800 795 793 804 816 818 819 813 811 813 813 816 816 819 819 820 822 822 824 825 827 829 830 832 833 835 835 837 838 838 840 840 841 842 843 844 845 846 846 847 847 848 848 849 849 850 850 851 851 852 852 853 854 854 854 854 855 855 855 855 855 855 855 855 855 854 854 853 853 853 853 852 852 852 852
760 758 761 781 794 800 803 798 793 788 782 778 779 777 777 779 784 791 795 800 798 800 802 797 803 808 813 819 818 814 812 814 815 817 818 820 821 822 823 824 826 826 828 829 832 833 834 836 836 838 838 840 841 841 842 843 844 845 845 846 846 847 847 848 848 849 849 850 851 851 852 852 853 853 854 854 855 855 855 856 856 856 856 856 855 855 855 854 854 853 853 853 853 852 852 852 851
767 767 766 789 799 799 797 797 795 789 785 783 785 778 774 777 786 795 797 802 800 802 802 798 805 806 815 823 818 814 814 816 816 817 819 820 822 823 824 825 827 828 830 831 833 834 835 837 837 839 839 841 841 842 843 843 845 845 846 846 847 847 847 848 848 849 850 851 851 851 852 852 853 854 854 855 855 856 856 856 856 856 856 856 855 855 855 855 854 854 853 853 852 852 852 852 851
765 769 773 791 794 794 794 795 792 789 791 786 785 777 771 778 787 793 795 799 799 804 802 795 799 802 816 823 817 816 815 816 817 818 820 821 823 824 825 826 828 830 831 832 833 834 836 837 838 839 840 841 842 843 844 844 845 845 846 846 847 847 848 849 849 850 850 851 851 852 852 853 854 854 855 855 856 856 856 856 856 856 856 856 855 855 855 854 854 853 853 852 852 852 851 851 851
757 761 771 789 790 791 792 795 792 792 796 783 778 775 772 780 783 785 790 799 800 799 798 791 793 804 817 821 821 819 815 816 817 819 820 821 824 824 826 827 829 830 831 833 834 835 836 837 839 840 841 842 843 843 844 845 845 846 847 847 848 848 848 849 849 850 851 851 852 852 853 853 854 854 855 855 855 856 856 856 856 856 856 855 855 854 854 854 854 853 852 852 851 851 850 850 850
751 757 768 788 792 791 792 794 792 794 794 778 773 772 775 778 776 782 786 795 800 790 790 792 790 803 815 817 821 816 812 815 816 819 820 822 824 825 827 828 830 831 832 833 834 835 836 838 839 840 841 842 843 843 844 845 846 846 847 847 848 848 849 849 850 851 851 852 852 852 853 853 854 854 855 855 855 856 856 856 856 856 856 855 855 854 854 854 854 853 852 851 851 850 850 849 849
745 755 773 790 794 796 792 789 791 796 790 775 771 769 780 781 772 781 780 782 795 789 789 797 792 796 806 809 810 808 810 814 816 819 820 823 824 826 828 828 831 832 833 834 835 836 836 838 838 840 841 841 843 843 844 844 845 846 846 847 848 848 849 849 850 851 851 852 852 853 853 854 855 855 855 855 855 856 856 856 856 856 856 855 854 854 854 854 853 853 852 851 850 850 849 849 848
743 759 782 793 794 795 790 787 791 793 785 775 773 770 783 787 774 776 774 777 791 794 793 796 792 792 799 803 804 806 810 813 815 819 820 823 824 826 829 830 832 832 834 834 835 836 837 838 838 840 840 841 842 842 844 844 845 846 846 847 847 848 848 849 850 850 851 851 852 853 853 854 855 855 855 855 855 856 856 856 856 855 855 854 854 853 853 853 852 852 851 851 850 849 849 848 848
752 771 786 792 793 788 779 780 779 778 780 777 774 771 779 786 783 778 781 788 792 796 799 796 796 795 798 801 804 807 811 814 815 818 820 822 824 826 828 830 831 832 834 835 836 837 837 838 838 840 840 841 842 842 843 843 844 845 846 846 847 848 847 849 849 850 851 851 852 852 853 854 854 855 855 855 856 856 856 855 855 855 854 853 853 853 853 852 852 851 851 850 849 849 848 847 847
756 773 785 787 783 775 765 767 767 769 776 774 772 770 774 781 782 780 789 799 796 802 807 802 803 803 802 803 806 809 810 814 816 818 820 822 824 826 828 830 832 833 834 835 836 837 838 838 839 840 840 841 841 842 843 843 844 844 845 846 846 847 847 848 848 849 850 851 852 852 853 854 854 854 855 855 855 855 855 855 855 854 854 853 853 853 852 852 851 851 850 850 849 848 848 847 846
753 764 782 779 768 767 760 759 761 762 766 771 773 770 772 776 775 779 792 801 800 804 808 807 811 808 805 805 805 809 811 814 816 818 821 822 824 825 827 829 831 833 834 835 836 837 838 838 839 839 840 840 841 841 842 843 843 844 845 846 846 847 847 847 848 849 850 851 851 852 853 853 853 853 854 854 854 854 854 854 854 853 853 853 852 852 852 851 851 850 850 849 848 848 847 846 845
750 755 772 766 759 767 761 755 756 756 760 767 771 772 777 775 773 781 791 804 808 803 799 800 806 806 805 805 805 809 811 813 816 818 821 823 825 826 828 829 831 832 833 835 836 837 837 838 838 839 839 839 840 841 841 842 843 844 844 845 846 846 847 847 848 849 849 850 851 852 852 852 853 852 852 852 852 852 852 853 853 853 852 852 851 851 851 850 850 850 849 849 848 847 846 846 845
750 752 754 753 756 766 758 751 753 754 759 766 771 776 779 775 777 783 787 802 807 798 794 793 796 799 801 803 805 808 810 813 816 818 820 822 824 826 828 829 830 832 833 834 835 836 836 837 838 838 839 839 840 840 841 842 842 843 844 844 845 846 847 847 848 849 849 850 851 852 852 852 851 851 851 850 850 850 851 851 851 851 851 851 851 850 850 850 849 849 849 848 848 847 846 845 845
754 756 747 748 752 758 755 749 753 755 762 771 773 773 772 779 786 784 784 793 793 787 789 791 793 795 797 801 805 808 810 813 815 817 819 821 823 825 826 828 829 831 832 833 833 835 836 836 837 837 838 838 839 840 840 841 842 842 843 844 845 845 846 847 847 848 849 850 850 851 850 850 850 849 849 849 849 849 849 849 849 850 850 850 850 849 849 849 849 848 848 848 847 846 845 845 844
750 759 750 747 747 751 752 750 755 757 765 768 766 769 773 783 789 784 786 787 784 785 786 789 793 794 797 801 804 807 809 812 814 816 818 819 822 823 825 826 828 830 831 832 833 833 834 835 836 837 837 838 838 839 840 840 841 842 843 843 844 845 846 846 847 848 849 849 849 849 848 848 848 847 848 848 848 848 848 848 848 849 848 849 848 848 848 848 848 848 847 847 846 845 844 844 844
747 755 750 746 748 751 751 752 757 759 764 765 766 775 779 780 782 785 789 786 784 786 787 790 793 796 799 802 804 806 808 810 812 814 817 818 820 822 824 825 827 828 829 830 832 832 833 834 834 836 836 837 838 838 839 840 841 842 843 843 844 844 845 846 847 848 848 849 848 847 846 846 846 846 847 847 848 848 848 848 848 847 847 847 847 847 847 847 847 846 846 846 846 845 844 844 844
746 747 747 747 752 753 752 756 760 762 764 765 773 783 782 776 780 792 791 785 786 786 790 793 794 799 801 802 803 805 807 808 810 812 814 816 818 820 822 824 825 827 828 829 830 831 832 833 834 835 835 836 837 838 838 839 840 841 842 842 843 844 844 845 846 847 847 847 846 845 845 845 846 846 846 847 848 848 848 848 848 847 847 846 846 846 846 846 846 845 845 845 845 844 844 843 842
738 741 745 748 754 752 753 760 761 764 766 766 777 787 784 776 784 802 795 784 787 789 794 795 796 801 801 802 802 803 806 806 808 810 812 815 817 819 820 822 824 825 827 828 829 829 830 832 833 833 835 836 836 837 838 839 840 841 841 842 842 843 844 845 845 846 845 845 844 844 844 845 845 845 845 846 846 847 848 848 847 847 846 846 845 845 845 845 844 844 844 844 844 844 843 842 842
733 740 750 753 754 756 756 762 764 765 771 768 773 785 786 783 790 801 794 785 787 791 797 797 798 801 800 801 801 802 804 804 807 808 810 813 814 816 818 819 821 823 825 826 827 828 829 830 831 833 834 835 836 836 837 838 839 840 841 841 842 842 843 844 844 844 844 843 843 842 843 844 844 844 844 844 845 846 846 846 846 846 845 845 844 844 844 843 843 843 843 843 843 843 842 841 841
734 739 759 764 759 765 762 762 763 765 775 767 769 794 799 795 797 794 788 786 788 792 798 798 799 800 799 800 801 802 802 803 805 806 808 810 812 814 815 817 818 821 823 824 826 827 828 829 830 831 833 834 834 835 836 837 838 839 840 840 841 842 842 843 843 843 843 842 842 842 842 842 842 843 843 843 843 844 844 844 844 844 844 844 843 843 842 842 842 842 842 842 842 842 841 840 840
740 742 759 771 775 780 766 760 763 765 773 762 771 810 816 801 796 789 786 786 790 796 798 798 799 799 800 800 800 802 801 802 803 804 806 808 811 812 813 816 816 818 820 823 824 825 826 827 828 830 831 833 833 835 835 836 837 838 839 839 840 840 841 842 842 842 842 841 841 841 841 841 841 842 842 843 843 843 843 843 843 843 843 843 843 842 842 842 841 841 840 840 840 840 840 839 839
747 753 761 773 787 788 767 760 766 772 774 759 774 814 817 802 795 788 785 785 790 798 799 798 800 799 800 800 800 802 800 801 801 801 804 805 808 810 812 814 815 817 819 821 823 823 825 826 827 828 829 831 832 833 834 835 836 837 838 838 839 840 840 841 841 841 841 840 840 840 840 840 841 841 841 842 842 842 842 842 842 842 842 842 842 842 842 841 841 840 839 839 839 839 838 838 838
750 766 779 779 783 785 771 761 763 773 776 764 780 813 814 801 794 786 783 784 789 796 798 798 799 799 800 800 800 801 800 799 800 800 802 804 806 808 810 812 814 816 817 819 821 822 824 825 826 827 828 829 830 832 833 834 835 836 837 838 838 839 840 840 840 840 840 839 839 839 839 839 839 840 840 841 842 842 842 842 841 841 841 842 842 841 841 840 840 839 838 838 838 837 837 837 837
757 768 787 784 780 786 780 767 758 763 775 774 782 805 810 799 791 785 782 784 789 794 798 797 799 799 799 800 800 800 801 800 800 800 801 802 804 806 808 810 812 814 815 817 819 821 822 823 824 825 826 828 829 831 832 833 834 835 836 836 837 838 839 839 839 840 839 839 839 839 838 838 839 839 839 840 840 841 841 840 840 840 841 841 841 840 840 839 839 838 837 837 837 836 836 836 835
770 770 780 779 777 784 784 777 763 758 773 781 782 793 800 793 787 785 782 783 789 793 797 797 797 798 797 798 799 799 801 801 800 799 800 801 802 805 806 808 811 813 814 816 818 820 821 822 824 824 826 827 829 830 831 833 834 834 835 835 836 836 837 838 837 838 838 839 839 839 838 838 838 837 838 838 838 839 839 839 839 839 839 839 840 839 839 839 838 838 837 837 836 835 835 834 834
774 773 777 779 776 778 780 777 767 761 771 782 787 793 794 789 785 784 782 781 787 791 793 796 796 797 797 797 798 799 800 800 798 798 799 800 801 803 805 807 810 812 814 816 817 819 820 821 823 824 826 827 829 830 831 833 833 834 835 835 835 835 836 836 836 837 837 837 837 838 838 836 836 837 837 837 837 837 837 837 838 838 838 838 838 838 838 838 838 838 837 836 835 834 834 833 833
765 765 771 778 777 776 772 766 759 757 772 783 786 791 791 789 786 783 781 780 785 789 790 794 795 796 796 797 797 798 799 798 796 796 798 799 800 802 804 806 809 811 813 815 817 818 818 820 822 824 825 827 828 830 831 832 832 833 834 834 834 834 835 836 836 836 836 837 836 836 836 836 836 837 837 837 837 837 837 837 837 837 838 838 838 837 837 837 837 837 836 835 834 833 833 832 832
759 762 766 770 773 775 766 761 755 750 772 785 779 784 788 787 785 780 779 780 783 788 791 793 794 795 795 796 796 796 797 795 794 796 797 798 800 801 803 805 808 811 812 814 815 816 818 819 821 823 824 826 827 828 829 830 830 831 832 832 833 833 834 835 835 835 835 836 835 835 835 836 836 837 837 837 837 837 837 837 837 837 837 837 837 837 836 836 836 835 835 834 833 832 831 831 831
759 763 767 768 770 771 762 757 755 749 768 784 778 783 789 784 783 779 777 781 783 784 788 791 791 792 793 793 795 794 794 793 793 796 797 798 799 800 803 804 806 809 810 812 813 815 817 818 820 821 823 824 825 827 828 828 829 829 830 831 832 833 833 834 834 835 835 835 835 835 835 836 837 837 837 837 837 837 837 837 837 837 837 836 836 836 835 835 834 834 834 833 832 831 830 830 830
760 763 768 774 769 768 765 756 753 752 767 785 782 786 791 782 779 779 777 778 778 776 779 784 786 789 791 791 792 792 793 794 794 795 796 797 798 799 802 803 805 807 809 811 812 814 816 817 819 820 821 823 824 825 826 827 828 829 830 830 831 832 832 833 833 833 834 834 834 835 835 836 837 837 837 837 837 837 837 837 837 837 836 835 835 835 834 834 833 833 832 832 831 831 830 829 829
760 762 769 776 768 771 776 764 756 754 762 778 783 787 791 785 782 780 775 773 773 772 773 775 778 782 784 784 785 788 791 793 793 793 793 795 797 798 800 802 804 805 807 809 811 813 814 816 818 819 820 821 822 823 825 826 827 829 830 830 831 831 832 832 832 833 833 833 834 834 835 836 836 837 837 837 837 837 837 836 836 836 835 834 834 833 833 832 832 831 831 831 831 830 830 829 829
759 756 761 768 764 766 769 762 759 760 765 772 782 799 800 790 791 788 777 774 774 773 774 776 775 774 776 778 780 782 784 787 790 791 791 792 794 796 797 800 802 804 806 807 809 811 812 814 816 817 819 820 821 822 823 825 826 828 829 830 831 831 831 832 832 832 832 833 833 834 835 835 836 836 836 836 836 836 836 835 835 835 834 833 833 832 832 831 831 831 830 830 830 830 829 829 829
760 752 747 751 755 757 759 760 766 779 788 775 779 814 818 794 791 790 781 781 780 776 776 778 777 775 776 778 778 778 779 781 783 786 788 789 791 793 795 797 800 802 803 805 807 809 811 813 814 816 817 818 820 821 822 824 824 826 827 828 829 829 830 830 831 831 831 832 833 833 834 835 835 836 835 836 835 835 835 835 834 834 833 833 832 832 831 830 830 830 830 829 829 829 829 829 829
765 747 734 738 745 751 758 763 772 789 793 771 765 800 817 802 792 787 781 784 783 778 777 776 775 775 774 775 775 776 777 778 780 782 783 786 788 790 793 795 797 799 801 804 806 808 809 811 812 814 815 817 818 820 821 822 823 824 825 826 827 828 828 829 829 830 831 831 832 832 833 834 834 834 834 834 834 834 834 834 833 833 832 832 831 831 830 830 829 829 829 829 828 828 828 828 828
761 735 726 737 743 749 754 759 770 775 774 772 767 779 804 808 793 781 779 785 786 781 778 775 772 772 771 771 771 771 773 774 777 779 781 782 785 787 789 792 794 797 799 802 804 806 807 809 811 812 814 815 816 818 819 820 822 823 824 825 826 827 827 828 829 829 830 830 831 832 832 832 833 833 833 833 833 833 833 833 832 832 831 831 831 830 830 829 829 829 828 828 828 827 827 827 827
743 723 724 733 737 744 745 752 765 765 773 792 783 775 800 810 789 778 781 786 788 783 777 773 769 768 768 767 767 767 767 768 770 774 776 777 780 783 786 789 792 795 797 799 801 804 806 807 809 810 812 813 814 816 817 819 820 821 823 824 825 826 826 827 828 828 829 829 830 831 831 831 832 832 832 832 832 832 832 832 831 831 831 830 830 830 830 829 829 828 828 828 827 827 827 826 826
725 715 722 728 733 739 741 751 763 766 782 800 789 776 795 807 790 783 788 787 785 778 770 767 764 764 764 763 764 763 764 766 767 769 770 773 775 778 782 786 789 792 794 797 799 801 804 806 807 809 810 811 813 814 816 817 819 820 821 823 823 825 825 826 827 827 828 828 829 829 830 830 831 831 831 831 832 831 831 831 830 830 830 830 830 829 829 829 828 828 828 827 827 826 826 826 825
716 717 727 732 737 741 747 754 759 776 793 792 782 773 783 801 793 782 781 771 763 765 767 765 762 762 761 759 760 761 763 765 766 767 768 769 772 775 779 783 786 789 792 795 797 799 801 803 805 807 808 809 811 812 814 816 817 818 819 821 822 823 824 825 825 826 827 827 828 828 829 829 830 830 831 831 831 830 830 830 830 830 829 829 829 829 829 829 828 828 827 827 827 826 826 825 825
717 726 733 743 751 752 762 767 766 788 798 778 770 768 777 796 789 772 765 750 744 753 759 759 759 758 757 756 758 758 760 762 763 765 766 768 771 774 777 780 783 786 789 791 794 796 799 801 803 805 806 808 809 811 813 814 815 816 817 819 820 821 822 823 824 824 825 826 826 827 827 828 828 829 830 830 830 830 830 829 829 829 829 829 829 828 828 828 828 828 827 827 826 826 825 825 825
723 732 741 759 771 772 783 788 783 792 787 764 760 767 778 784 767 753 751 743 739 743 742 746 750 752 754 754 755 755 756 759 760 762 764 765 768 770 773 776 779 782 785 787 791 793 796 798 800 802 803 805 807 809 811 812 814 815 816 817 818 820 821 822 823 823 824 824 825 825 826 826 827 828 829 829 829 829 829 828 828 828 828 828 828 828 828 827 827 827 827 826 826 825 825 825 824
731 737 746 762 777 787 798 797 793 792 778 757 753 764 778 776 753 740 739 732 729 730 731 736 741 746 750 749 749 751 752 754 755 757 760 762 764 766 769 772 775 778 780 783 787 790 792 795 797 799 801 803 805 807 809 810 812 814 815 816 817 818 819 820 821 822 823 824 824 824 824 825 826 827 827 828 828 828 828 827 827 827 827 827 827 827 827 827 826 826 826 825 825 825 824 824 824
727 726 734 749 760 775 788 788 788 787 773 761 758 764 772 767 743 725 721 718 717 723 727 732 737 740 742 744 746 749 750 751 752 754 756 757 759 761 765 768 771 774 777 780 783 786 788 791 794 796 799 801 803 805 806 808 810 812 814 815 816 817 818 819 820 821 822 823 823 823 823 824 824 825 826 826 827 827 827 826 826 826 826 825 825 825 825 825 825 825 825 824 824 824 823 823 823
723 716 730 744 741 748 764 769 767 767 769 766 761 758 750 739 726 715 715 716 717 724 729 732 738 738 740 745 747 747 749 750 751 752 753 754 756 758 761 765 768 771 774 777 779 781 784 787 791 793 796 799 800 802 804 806 808 811 813 814 815 816 816 817 818 819 820 821 822 822 822 823 823 824 824 825 825 825 825 825 825 825 825 824 824 824 824 824 824 824 823 823 823 822 822 821 821
723 723 733 731 721 728 752 766 758 759 775 770 756 752 742 733 729 721 720 725 725 728 730 731 735 736 740 744 744 746 748 747 747 748 749 751 754 756 758 762 765 768 771 773 774 776 779 783 787 790 794 796 798 800 802 804 806 808 810 812 814 815 815 815 816 817 819 820 821 821 821 821 822 822 823 823 824 824 824 824 824 824 823 823 823 823 823 823 822 822 822 822 821 821 821 820 820
720 731 725 717 721 726 741 764 770 774 786 772 754 754 750 749 747 732 728 733 733 730 728 729 733 736 740 741 741 743 742 742 743 743 745 748 750 753 756 758 761 763 765 768 770 773 776 779 782 786 790 793 795 797 799 802 804 805 808 809 811 813 813 814 814 815 817 818 819 819 820 820 821 821 822 822 823 823 823 823 823 823 822 822 822 821 821 821 821 820 820 820 820 819 819 819 818
703 712 705 714 740 747 746 760 773 782 789 777 759 754 752 752 749 739 737 736 733 730 727 728 732 735 737 738 739 740 740 742 743 743 745 746 747 750 752 755 758 760 762 765 767 771 773 776 779 782 786 789 792 795 797 799 801 803 805 807 809 810 811 812 812 813 814 815 816 817 818 819 819 820 821 821 821 821 822 822 821 821 821 820 820 820 820 820 819 819 819 818 818 818 817 817 817
695 700 702 711 727 738 743 749 755 767 781 780 769 761 754 745 735 733 735 730 726 728 729 729 731 731 733 734 737 739 740 741 741 742 743 743 745 747 748 752 754 757 760 763 766 769 771 773 776 779 783 786 790 792 794 796 798 800 803 805 806 808 809 810 810 811 812 812 814 815 816 817 818 819 819 819 820 820 820 820 820 820 819 819 819 819 819 818 818 818 817 817 816 816 816 815 815
710 715 719 720 719 724 733 740 741 749 766 776 775 771 757 733 722 724 725 723 722 724 727 728 728 727 729 731 733 736 737 737 738 738 740 741 743 745 747 749 751 755 759 762 764 766 768 771 774 776 780 784 787 789 791 794 796 798 800 802 804 806 807 808 808 809 810 810 812 813 814 816 816 817 818 818 818 818 818 819 819 818 818 818 818 818 817 817 816 816 815 815 815 814 814 814 813
706 714 718 720 721 727 741 751 744 737 748 758 764 771 755 725 716 718 716 717 719 718 722 725 725 726 727 728 728 730 732 733 734 734 736 738 740 742 745 748 752 755 757 759 762 764 767 769 771 774 777 780 783 786 788 791 794 796 798 799 801 803 805 806 807 808 808 809 810 811 813 814 815 815 816 816 816 817 817 817 817 817 817 816 816 816 816 816 815 815 814 813 813 812 812 812 811